User: anonymous   Login
Location: Unspecified
(0.0000°N, 0.0000°E)
Time: 23:58:37
(UTC+02:00)
Language:

Cosmos 773 Rocket - Orbit

View from above orbital plane
View from above orbital plane
View from above satellite
View from above satellite

Ground track
Ground track

The orbit data is extracted from the following two-line orbital elements,

1 08344U 75094B   17230.55332496 -.00000030  00000-0 -11479-5 0  9996
2 08344  74.0582  10.7059 0022821 257.1348 102.7257 14.39097705194658
Epoch (UTC): 18 August 2017 13:16:47
Eccentricity: 0.0022821
inclination: 74.0582°
perigee height: 745 km
apogee height: 778 km
right ascension of ascending node: 10.7059°
argument of perigee: 257.1348°
revolutions per day: 14.39097705
mean anomaly at epoch: 102.7257°
orbit number at epoch: 19465

The dashed part of the orbit path shows where the satellite is in the earth's shadow,  

DLR